TimeMST,TemperatureF,Dew PointF,Humidity,Sea Level PressureIn,VisibilityMPH,Wind Direction,Wind SpeedMPH,Gust SpeedMPH,PrecipitationIn,Events,Conditions,WindDirDegrees,DateUTC
12:53 AM,33.1,15.1,48,30.22,10.0,WSW,15.0,-,N/A,,Overcast,240,2013-02-28 07:53:00
1:53 AM,32.0,14.0,48,30.23,10.0,SW,12.7,-,N/A,,Mostly Cloudy,230,2013-02-28 08:53:00
2:53 AM,32.0,15.1,50,30.24,10.0,WSW,11.5,-,N/A,,Mostly Cloudy,250,2013-02-28 09:53:00
3:53 AM,33.1,15.1,48,30.23,10.0,West,11.5,-,N/A,,Mostly Cloudy,270,2013-02-28 10:53:00
4:53 AM,28.9,15.1,56,30.25,10.0,SW,13.8,-,N/A,,Partly Cloudy,230,2013-02-28 11:53:00
5:53 AM,28.0,14.0,56,30.27,10.0,WSW,16.1,-,N/A,,Scattered Clouds,240,2013-02-28 12:53:00
6:53 AM,30.0,14.0,51,30.27,10.0,WSW,15.0,-,N/A,,Mostly Cloudy,250,2013-02-28 13:53:00
7:53 AM,28.9,14.0,54,30.27,10.0,SW,10.4,-,N/A,,Mostly Cloudy,230,2013-02-28 14:53:00
8:53 AM,30.9,14.0,50,30.28,10.0,WSW,13.8,-,N/A,,Mostly Cloudy,240,2013-02-28 15:53:00
9:53 AM,34.0,15.1,46,30.26,10.0,WSW,12.7,-,N/A,,Mostly Cloudy,240,2013-02-28 16:53:00
10:53 AM,37.0,16.0,42,30.26,10.0,SW,12.7,-,N/A,,Mostly Cloudy,230,2013-02-28 17:53:00
11:53 AM,39.9,16.0,38,30.25,10.0,WSW,10.4,-,N/A,,Mostly Cloudy,240,2013-02-28 18:53:00
12:53 PM,43.0,18.0,37,30.23,10.0,WNW,11.5,-,N/A,,Mostly Cloudy,300,2013-02-28 19:53:00
1:53 PM,45.0,19.0,36,30.20,10.0,West,6.9,17.3,N/A,,Mostly Cloudy,280,2013-02-28 20:53:00
2:37 PM,48.0,17.1,29,30.13,10.0,WNW,25.3,32.2,N/A,,Scattered Clouds,300,2013-02-28 21:37:00
2:53 PM,48.2,17.6,30,30.14,10.0,NW,21.9,28.8,N/A,,Scattered Clouds,320,2013-02-28 21:53:00
3:53 PM,48.0,15.1,27,30.19,10.0,NNW,17.3,23.0,N/A,,Scattered Clouds,330,2013-02-28 22:53:00
4:53 PM,45.0,16.0,31,30.22,10.0,NNW,18.4,-,N/A,,Partly Cloudy,340,2013-02-28 23:53:00
5:53 PM,42.8,17.6,36,30.18,10.0,NNW,13.8,-,N/A,,Partly Cloudy,340,2013-03-01 00:53:00
6:53 PM,37.9,17.1,43,30.28,10.0,NW,9.2,-,N/A,,Scattered Clouds,320,2013-03-01 01:53:00
7:53 PM,37.0,17.1,44,30.31,10.0,WNW,12.7,-,N/A,,Clear,290,2013-03-01 02:53:00
8:53 PM,35.1,17.1,48,30.32,10.0,NNW,9.2,-,N/A,,Clear,330,2013-03-01 03:53:00
9:53 PM,35.1,18.0,50,30.32,10.0,South,5.8,-,N/A,,Clear,190,2013-03-01 04:53:00
10:53 PM,30.9,17.1,57,30.33,10.0,SW,11.5,-,N/A,,Clear,220,2013-03-01 05:53:00
11:53 PM,32.0,16.0,52,30.30,10.0,WSW,13.8,-,N/A,,Clear,240,2013-03-01 06:53:00